SCP
0 0 0 0 0 0 0 0 0 0 0 0 0 0 0 0 0 0 0 0 0 0 0 0 0 0 0 0 0 0 0 0 0 0 0 0 0 0
0 0 0 0 0 0 0 0 0 0 0 0 0 0 0 0 0 0 0 0 0 0 0 0 0 0 0 0 0 0 0 0 0 0 0 0 0 0
0 0 0 0 0 0 0 0 0 0 0 0 0 0 0 0 0 0 0 0 0 0 0 0 0 0 0 0 0 0 0 0 0 0 0 0 0 0
0 0 0 0 0 0 0 0 0 0 0 0 0 0 0 0 0 0 0 0 0 0 0 0 0 0 0 0 0 0 0 0 0 0 0 0 0 0
0 0 0 0 0 0 0 0 0 0 0 0 0 0 0 0 0 0 0 0 0 0 0 0 0 0 0 0 0 0 0 0 0 0 0 0 0 0
0 0 0 0 0 0 0 0 0 0 0 0 0 0 0 0 0 0 0 0 0 0 0 0 0 0 0 0 0 0 0 0 0 0 0 0 0 0
0 0 0 0 0 0 0 0 0 0 0 0 0 0 0 0 0 0 0 0 0 0 0 0 0 0 0 0 0 0 0 0 0 0 0 0 0 0
0 0 0 0 0 0 0 0 0 0 0 0 0 0 0 0 0 0 0 0 0 0 0 0 0 0 0 0 0 0 0 0 0 0 0 0 0 0
0 0 0 0 0 0 0 0 0 0 0 0 0 0 0 0 0 0 0 0 0 0 0 0 0 0 0 0 0 0 0 0 0 0 0 0 0 0
0 0 0 0 0 0 0 0 0 0 0 0 0 0 0 0 0 0 0 0 0 0 0 0 0 0 0 0 0 0 0 0 0 0 0 0 0 0
0 0 0 0 0 0 0 0 0 0 0 0 0 0 0 0 0 0 0 0 0 0 0 0 0 0 0 0 0 0 0 0 0 0 0 0 0 0
0 0 0 0 0 0 0 0 0 0 0 0 0 0 0 0 0 0 0 0 0 0 0 0 0 0 0 0 0 0 0 0 0 0 0 0 0 0
0 0 0 0 0 -0 0 0 0 0 0 0 0 0 0 0 0 0 0 0 0 0 0 0 0 0 0 0 0 0 0 0 0 0 0 0 0 0
0 0 0 0 0 0 0 0 0 0 0 0 0 0 0 0 0 0 0 0 0 0 0 0 0 0 0 0 0 0 0 0 0 0 0 0 0 0
0 0 0 0 0 0 0 0 0 0 0 0 0 0 0 0 0 0 0 0 0 0 0 0 0 0 0 0 0 0 0 0 0 0 0 0 0 0
0 0 0 0 0 0 0 0 0 0 0 0 0 0 0 0 0 0 0 0 0 0 0 0 0 0 0 0 0 0 0 0 0 0 0 0 0 0
0 0 0 0 0 0 0 0 0 0 0 0 0 0 0 0 0 0 0 0 0 0 0 0 0 0 0 0 0 0 0 0 0 0 0 0 0 0
-0 0 0 0 0 0 0 0 0 0 0 0 0 0 0 0 0 0 0 0 0 0 0 0 0 0 0 -0 0 0 0 0 0 0 0 0 0 0
0 0 0 0 0 0 0 0 0 0 0 0 0 0 0 0 0 0 0 0 0 0 0 0 0 0 -0 -0 0 -0 -0 0 0 0 0 0 0 0
0 0 0 0 0 0 0 0 0 0 0 0 0 0 0 0 0 0 0 0 0 0 0 0 0 -0 -0 -0 -0 -0 -0 -0 -0 -0 0 0 0 0
0 0 0 0 0 0 0 0 0 0 0 0 0 0 0 0 0 0 0 0 0 0 -0 0 0 -0 -0 -0 -0 -0 -0 -0 -0 -0 -0 -0 0 -0
0 0 0 0 0 0 0 0 0 0 0 0 0 0 0 0 0 0 0 0 0 0 -0 -0 -0 -0 -0 -0 -0 -0 -0 -0 -0 -0 0 0 0 0
0 0 0 0 0 -0 0 0 0 0 0 -0 0 0 0 0 0 -0 -0 -0 -0 -0 -0 -0 -0 -0 -0 -0 -0 -0 -0 -0 -0 -0 -0 -0 -0 -0
Wind_Speed_500mb
63 62 65 77 73 68 71 75 67 37 26 52 47 51 54 53 56 57 58 59 60 61 60 59 58 59 58 51 46 44 41 41 41 39 39 39 39 38
61 63 69 70 65 65 62 69 66 60 52 30 49 49 54 55 52 50 54 56 56 55 54 53 54 57 59 57 55 54 52 49 44 39 39 38 40 48
62 61 63 66 62 62 59 59 57 57 57 48 38 35 41 44 48 49 46 46 47 47 49 51 53 55 57 58 58 57 54 53 47 40 43 40 45 44
62 66 66 65 61 61 53 54 53 52 54 52 53 48 47 50 50 42 42 44 46 46 47 49 51 53 56 57 57 55 54 54 51 49 44 48 46 47
66 74 75 66 64 57 53 53 48 48 48 50 39 50 48 47 38 37 43 42 41 41 43 44 44 46 48 50 50 49 50 51 46 48 48 45 43 47
65 70 72 65 59 48 56 45 44 39 35 30 28 29 30 34 34 33 30 30 30 31 32 35 37 40 42 46 46 45 47 49 51 50 49 51 53 51
61 67 62 55 51 45 48 44 40 35 32 29 28 31 35 36 38 31 29 30 34 36 37 39 38 39 38 39 42 41 41 42 45 46 47 49 48 48
61 64 62 51 46 43 46 45 46 45 42 37 35 38 37 33 28 35 37 32 23 24 27 31 33 31 30 37 40 42 42 44 44 45 46 48 48 50
54 57 59 40 32 31 33 34 29 36 39 32 26 25 30 33 34 31 28 25 22 21 25 30 25 26 28 35 38 42 44 44 44 44 45 46 47 48
47 46 45 33 29 28 24 27 32 30 21 23 23 21 22 20 25 22 21 20 21 20 19 26 21 25 26 26 29 37 44 47 42 39 41 43 47 52
38 37 34 26 8 16 18 16 17 24 30 33 33 33 31 32 31 25 23 20 22 21 20 26 23 19 26 20 17 31 37 37 40 36 36 34 31 32
39 44 20 24 19 14 16 18 21 23 26 25 23 18 18 20 24 22 22 22 24 20 10 9 21 27 12 6 2 11 26 27 27 28 25 36 32 34
40 35 26 14 20 20 22 22 19 19 21 23 25 25 28 30 30 28 28 29 29 28 20 25 26 28 27 33 32 24 33 39 47 47 40 45 41 41
39 33 27 20 26 19 23 20 15 20 24 26 25 25 21 22 25 30 32 31 31 31 28 30 36 35 38 43 45 38 36 31 33 40 43 40 44 48
35 33 34 20 17 16 19 18 21 25 28 25 18 17 19 22 23 23 25 28 30 30 31 34 41 45 45 52 55 54 50 44 34 32 35 38 34 39
37 36 27 15 12 6 17 25 21 13 9 8 8 11 17 20 22 24 25 28 31 25 30 35 37 40 46 48 55 61 56 40 38 39 41 47 51 54
33 32 23 2 4 9 20 18 13 9 8 9 13 17 19 21 24 26 28 29 32 31 30 27 26 33 39 44 55 57 55 51 49 46 50 53 53 54
35 30 21 16 10 10 14 14 11 11 16 19 21 23 24 24 24 27 29 31 36 36 35 32 35 37 38 44 49 53 49 49 45 48 49 53 57 53
31 25 19 17 14 11 11 14 19 23 26 27 27 27 27 27 29 30 32 34 38 41 41 37 35 33 33 44 46 37 42 39 43 47 50 54 63 63
21 20 17 15 16 19 22 25 27 28 28 29 28 29 30 32 33 34 35 38 41 46 49 40 33 28 34 41 43 52 44 52 56 60 62 62 60 59
24 21 20 19 17 17 19 22 24 26 28 28 27 30 32 35 37 38 40 41 44 47 53 47 25 29 35 41 52 60 59 54 51 55 59 61 66 67
26 26 24 23 24 24 24 26 27 28 30 31 32 34 35 39 41 42 43 46 46 47 51 45 30 31 36 43 54 62 65 63 57 56 60 63 65 44
29 28 26 26 25 26 28 30 31 31 32 34 36 37 39 42 42 45 46 46 46 46 42 39 35 37 43 47 55 63 66 66 63 65 65 63 71 78
Wind_Direction_500mb
291 290 292 289 287 286 278 271 272 294 266 237 227 222 212 213 218 217 217 217 219 223 229 236 237 237 235 234 238 243 248 253 257 256 251 250 252 254
307 298 292 292 290 285 285 275 267 275 276 269 237 214 208 211 216 219 222 222 222 224 227 229 229 233 237 241 245 250 255 255 253 249 248 246 247 252
299 302 297 290 288 288 289 279 269 267 266 264 244 218 208 215 207 208 212 216 221 225 228 230 232 235 241 245 249 250 251 251 250 248 247 246 247 244
310 312 306 297 288 286 282 278 271 264 261 255 242 219 207 205 200 207 227 235 236 237 238 239 240 240 243 246 248 248 248 249 249 245 244 243 236 242
309 312 309 303 285 286 281 269 263 261 254 244 218 200 199 206 220 230 239 241 241 240 242 243 243 242 243 244 247 248 247 246 242 249 242 236 243 245
304 308 303 298 283 280 278 260 254 250 246 239 233 228 228 233 233 226 223 231 231 236 238 239 239 241 243 245 247 250 250 249 246 247 247 248 247 246
302 312 302 298 282 279 259 255 242 231 226 223 219 213 216 223 233 243 250 245 243 243 243 243 241 240 240 243 246 248 249 249 250 252 249 247 248 248
310 307 301 295 280 287 248 250 238 226 221 214 216 226 233 235 239 238 233 228 233 213 209 217 229 240 250 251 249 247 247 248 250 251 252 252 253 255
306 310 304 296 267 254 238 229 230 230 231 223 216 231 238 238 229 225 221 236 233 219 240 251 253 257 248 244 241 240 240 246 252 252 252 253 254 253
319 313 305 311 276 233 225 233 232 226 217 225 221 234 238 238 237 231 248 230 233 241 252 278 277 273 263 257 258 252 246 248 249 247 250 253 254 253
315 325 309 317 266 220 209 212 216 227 228 236 240 241 244 244 243 232 215 235 244 259 266 280 285 280 289 301 272 245 238 239 245 250 248 240 247 262
326 325 312 288 277 245 249 250 236 231 232 217 205 204 203 208 219 223 217 236 258 283 262 255 280 300 308 318 6 261 233 207 211 239 240 245 255 248
326 327 317 291 261 250 243 250 241 212 199 181 184 196 208 216 225 235 241 248 256 264 266 280 281 287 291 291 288 251 241 251 257 251 252 242 252 257
329 325 313 326 269 239 215 220 188 178 175 178 192 191 205 220 237 247 252 254 258 262 268 270 274 283 288 287 284 298 292 282 264 249 245 248 252 259
340 324 312 291 262 231 201 191 187 182 171 173 195 228 250 256 253 253 258 260 262 268 277 278 275 281 278 279 277 286 293 294 282 269 259 255 250 263
333 337 330 276 306 214 159 182 180 192 211 227 237 257 264 267 266 264 262 264 270 273 271 272 273 271 274 274 274 279 279 272 276 281 284 278 273 271
334 340 360 202 214 136 168 173 187 216 273 300 305 301 291 280 277 275 277 280 283 286 289 294 290 280 275 273 269 271 274 276 279 285 284 281 275 269
332 337 341 24 77 125 154 175 210 260 287 294 295 294 287 281 279 279 283 288 291 296 298 302 299 292 284 277 270 274 276 278 283 284 281 277 277 272
327 328 318 305 302 299 283 275 279 285 288 288 289 287 285 283 282 283 286 289 292 296 297 300 296 291 286 279 286 283 281 282 281 281 280 278 280 275
333 327 323 312 298 287 281 280 279 281 282 285 288 287 285 285 284 285 289 292 294 295 295 296 294 288 282 283 285 280 268 277 284 288 288 287 280 276
331 326 319 315 306 295 287 284 284 286 287 288 289 287 286 286 285 287 289 291 292 293 293 296 292 281 287 287 281 285 288 286 286 285 287 282 281 279
319 314 310 305 300 296 291 288 286 287 288 289 288 286 286 286 289 290 290 291 289 288 288 293 288 289 285 281 287 291 293 294 291 285 276 268 263 257
315 307 304 302 300 297 294 291 290 289 288 287 285 285 286 285 287 287 288 288 289 289 290 286 287 293 292 290 292 294 294 295 296 293 284 275 268 267
Wind_Speed_850mb
63 62 65 77 73 68 71 75 67 37 26 52 47 51 54 53 56 57 58 59 60 61 60 59 58 59 58 51 46 44 41 41 41 39 39 39 39 38
61 63 69 70 65 65 62 69 66 60 52 30 49 49 54 55 52 50 54 56 56 55 54 53 54 57 59 57 55 54 52 49 44 39 39 38 40 48
62 61 63 66 62 62 59 59 57 57 57 48 38 35 41 44 48 49 46 46 47 47 49 51 53 55 57 58 58 57 54 53 47 40 43 40 45 44
62 66 66 65 61 61 53 54 53 52 54 52 53 48 47 50 50 42 42 44 46 46 47 49 51 53 56 57 57 55 54 54 51 49 44 48 46 47
66 74 75 66 64 57 53 53 48 48 48 50 39 50 48 47 38 37 43 42 41 41 43 44 44 46 48 50 50 49 50 51 46 48 48 45 43 47
65 70 72 65 59 48 56 45 44 39 35 30 28 29 30 34 34 33 30 30 30 31 32 35 37 40 42 46 46 45 47 49 51 50 49 51 53 51
61 67 62 55 51 45 48 44 40 35 32 29 28 31 35 36 38 31 29 30 34 36 37 39 38 39 38 39 42 41 41 42 45 46 47 49 48 48
61 64 62 51 46 43 46 45 46 45 42 37 35 38 37 33 28 35 37 32 23 24 27 31 33 31 30 37 40 42 42 44 44 45 46 48 48 50
54 57 59 40 32 31 33 34 29 36 39 32 26 25 30 33 34 31 28 25 22 21 25 30 25 26 28 35 38 42 44 44 44 44 45 46 47 48
47 46 45 33 29 28 24 27 32 30 21 23 23 21 22 20 25 22 21 20 21 20 19 26 21 25 26 26 29 37 44 47 42 39 41 43 47 52
38 37 34 26 8 16 18 16 17 24 30 33 33 33 31 32 31 25 23 20 22 21 20 26 23 19 26 20 17 31 37 37 40 36 36 34 31 32
39 44 20 24 19 14 16 18 21 23 26 25 23 18 18 20 24 22 22 22 24 20 10 9 21 27 12 6 2 11 26 27 27 28 25 36 32 34
40 35 26 14 20 20 22 22 19 19 21 23 25 25 28 30 30 28 28 29 29 28 20 25 26 28 27 33 32 24 33 39 47 47 40 45 41 41
39 33 27 20 26 19 23 20 15 20 24 26 25 25 21 22 25 30 32 31 31 31 28 30 36 35 38 43 45 38 36 31 33 40 43 40 44 48
35 33 34 20 17 16 19 18 21 25 28 25 18 17 19 22 23 23 25 28 30 30 31 34 41 45 45 52 55 54 50 44 34 32 35 38 34 39
37 36 27 15 12 6 17 25 21 13 9 8 8 11 17 20 22 24 25 28 31 25 30 35 37 40 46 48 55 61 56 40 38 39 41 47 51 54
33 32 23 2 4 9 20 18 13 9 8 9 13 17 19 21 24 26 28 29 32 31 30 27 26 33 39 44 55 57 55 51 49 46 50 53 53 54
35 30 21 16 10 10 14 14 11 11 16 19 21 23 24 24 24 27 29 31 36 36 35 32 35 37 38 44 49 53 49 49 45 48 49 53 57 53
31 25 19 17 14 11 11 14 19 23 26 27 27 27 27 27 29 30 32 34 38 41 41 37 35 33 33 44 46 37 42 39 43 47 50 54 63 63
21 20 17 15 16 19 22 25 27 28 28 29 28 29 30 32 33 34 35 38 41 46 49 40 33 28 34 41 43 52 44 52 56 60 62 62 60 59
24 21 20 19 17 17 19 22 24 26 28 28 27 30 32 35 37 38 40 41 44 47 53 47 25 29 35 41 52 60 59 54 51 55 59 61 66 67
26 26 24 23 24 24 24 26 27 28 30 31 32 34 35 39 41 42 43 46 46 47 51 45 30 31 36 43 54 62 65 63 57 56 60 63 65 44
29 28 26 26 25 26 28 30 31 31 32 34 36 37 39 42 42 45 46 46 46 46 42 39 35 37 43 47 55 63 66 66 63 65 65 63 71 78
Wind_Direction_850mb
291 290 292 289 287 286 278 271 272 294 266 237 227 222 212 213 218 217 217 217 219 223 229 236 237 237 235 234 238 243 248 253 257 256 251 250 252 254
307 298 292 292 290 285 285 275 267 275 276 269 237 214 208 211 216 219 222 222 222 224 227 229 229 233 237 241 245 250 255 255 253 249 248 246 247 252
299 302 297 290 288 288 289 279 269 267 266 264 244 218 208 215 207 208 212 216 221 225 228 230 232 235 241 245 249 250 251 251 250 248 247 246 247 244
310 312 306 297 288 286 282 278 271 264 261 255 242 219 207 205 200 207 227 235 236 237 238 239 240 240 243 246 248 248 248 249 249 245 244 243 236 242
309 312 309 303 285 286 281 269 263 261 254 244 218 200 199 206 220 230 239 241 241 240 242 243 243 242 243 244 247 248 247 246 242 249 242 236 243 245
304 308 303 298 283 280 278 260 254 250 246 239 233 228 228 233 233 226 223 231 231 236 238 239 239 241 243 245 247 250 250 249 246 247 247 248 247 246
302 312 302 298 282 279 259 255 242 231 226 223 219 213 216 223 233 243 250 245 243 243 243 243 241 240 240 243 246 248 249 249 250 252 249 247 248 248
310 307 301 295 280 287 248 250 238 226 221 214 216 226 233 235 239 238 233 228 233 213 209 217 229 240 250 251 249 247 247 248 250 251 252 252 253 255
306 310 304 296 267 254 238 229 230 230 231 223 216 231 238 238 229 225 221 236 233 219 240 251 253 257 248 244 241 240 240 246 252 252 252 253 254 253
319 313 305 311 276 233 225 233 232 226 217 225 221 234 238 238 237 231 248 230 233 241 252 278 277 273 263 257 258 252 246 248 249 247 250 253 254 253
315 325 309 317 266 220 209 212 216 227 228 236 240 241 244 244 243 232 215 235 244 259 266 280 285 280 289 301 272 245 238 239 245 250 248 240 247 262
326 325 312 288 277 245 249 250 236 231 232 217 205 204 203 208 219 223 217 236 258 283 262 255 280 300 308 318 6 261 233 207 211 239 240 245 255 248
326 327 317 291 261 250 243 250 241 212 199 181 184 196 208 216 225 235 241 248 256 264 266 280 281 287 291 291 288 251 241 251 257 251 252 242 252 257
329 325 313 326 269 239 215 220 188 178 175 178 192 191 205 220 237 247 252 254 258 262 268 270 274 283 288 287 284 298 292 282 264 249 245 248 252 259
340 324 312 291 262 231 201 191 187 182 171 173 195 228 250 256 253 253 258 260 262 268 277 278 275 281 278 279 277 286 293 294 282 269 259 255 250 263
333 337 330 276 306 214 159 182 180 192 211 227 237 257 264 267 266 264 262 264 270 273 271 272 273 271 274 274 274 279 279 272 276 281 284 278 273 271
334 340 360 202 214 136 168 173 187 216 273 300 305 301 291 280 277 275 277 280 283 286 289 294 290 280 275 273 269 271 274 276 279 285 284 281 275 269
332 337 341 24 77 125 154 175 210 260 287 294 295 294 287 281 279 279 283 288 291 296 298 302 299 292 284 277 270 274 276 278 283 284 281 277 277 272
327 328 318 305 302 299 283 275 279 285 288 288 289 287 285 283 282 283 286 289 292 296 297 300 296 291 286 279 286 283 281 282 281 281 280 278 280 275
333 327 323 312 298 287 281 280 279 281 282 285 288 287 285 285 284 285 289 292 294 295 295 296 294 288 282 283 285 280 268 277 284 288 288 287 280 276
331 326 319 315 306 295 287 284 284 286 287 288 289 287 286 286 285 287 289 291 292 293 293 296 292 281 287 287 281 285 288 286 286 285 287 282 281 279
319 314 310 305 300 296 291 288 286 287 288 289 288 286 286 286 289 290 290 291 289 288 288 293 288 289 285 281 287 291 293 294 291 285 276 268 263 257
315 307 304 302 300 297 294 291 290 289 288 287 285 285 286 285 287 287 288 288 289 289 290 286 287 293 292 290 292 294 294 295 296 293 284 275 268 267